{"data":{"norad_id":64118,"intl_designator":"2025-110Y","name":"STARLINK-33964","alt_names":[],"object_type":"PAYLOAD","status":"ACTIVE","operator":null,"country":"US","launch_date":"2025-05-23","launch_site_code":"AFWTR","launch_vehicle":null,"mission":null,"orbit_class":"UNKNOWN","rcs_meters":null,"size_class":null,"mass_kg":null,"dimensions":null,"purposes":["comms"],"wikipedia_slug":null,"has_3d_model":false,"image_url":null,"decayed_at":null,"tle_current":{"epoch":"2026-05-25T02:29:35.802240Z","epoch_age_seconds":62909,"freshness":"FRESH","line1":"1 64118U 25110Y   26145.10388660  .00048256  00000+0  15553-2 0  9994","line2":"2 64118  53.1590  31.6965 0001008  86.8590 273.2526 15.31730499 57584","mean_motion":15.31730499,"eccentricity":0.0001008,"inclination_deg":53.159,"raan_deg":31.6965,"arg_perigee_deg":86.859,"mean_anomaly_deg":273.2526,"bstar":0.0015553,"rev_number":5758,"period_min":94.011316020678,"perigee_km":469.9587231653,"apogee_km":471.33943843919,"semimajor_km":6848.7860808022,"source":"CELESTRAK","updated_at":"2026-05-25T13:38:20.268878Z"}}}